This demonstration page uses our WeatherBlox Daily Observations layout. Learn more.

36.17497, -115.13722

Hourly Observations for July 10, 2015

Temp ( °F °C ) Dew Point ( °F °C ) Humidity (%) Winds ( mph kmh ) Pressure ( in mb ) Visibility ( mi km ) Precip ( " mm )
12:53 am 00:53 Clear 79 26 37 3 23 23 SSE 5 7 29.65 1004 10 16.09344 0 0
1:53 am 01:53 Clear 77 25 41 5 28 28 WSW 6 9 29.65 1004 10 16.09344 0 0
2:53 am 02:53 Clear 77 25 39 4 26 26 SW 6 9 29.65 1004 10 16.09344 0 0
3:53 am 03:53 Clear 75 24 43 6 31 31 S 6 9 29.68 1005 10 16.09344 0 0
4:53 am 04:53 Clear 75 24 45 7 34 34 S 5 7 29.68 1005 10 16.09344 0 0
5:53 am 05:53 Sunny 73 23 45 7 36 36 Calm 29.71 1006 10 16.09344 0 0
6:53 am 06:53 Sunny 75 24 46 8 36 36 SE 3 6 29.74 1007 10 16.09344 0 0
7:53 am 07:53 Sunny 77 25 45 7 32 32 SSE 5 7 29.77 1008 10 16.09344 0 0
8:53 am 08:53 Sunny 81 27 43 6 26 26 S 9 15 29.77 1008 10 16.09344 0 0
9:53 am 09:53 Sunny 84 29 41 5 22 22 SSE 9 15 29.74 1007 10 16.09344 0 0
10:53 am 10:53 Sunny 84 29 39 4 20 20 S 15 24 29.74 1007 10 16.09344 0 0
11:53 am 11:53 Sunny 88 31 41 5 19 19 S 15 24 29.71 1006 10 16.09344 0 0
12:53 pm 12:53 Mostly Sunny 88 31 41 5 19 19 S 10 17 29.71 1006 10 16.09344 0 0
1:53 pm 13:53 Mostly Sunny 90 32 39 4 17 17 SSE 15 24 29.65 1004 10 16.09344 0 0
2:53 pm 14:53 Partly Cloudy 91 33 39 4 16 16 SSE 23 37 29.62 1003 10 16.09344 0 0
3:22 pm 15:22 Partly Cloudy 91 33 39 4 16 16 S 15 24 29.62 1003 10 16.09344 0 0
3:53 pm 15:53 Sunny 91 33 37 3 15 15 SE 15 24 29.62 1003 10 16.09344 0 0
4:53 pm 16:53 Sunny 91 33 39 4 16 16 SSE 14 22 29.59 1002 10 16.09344 0 0
5:53 pm 17:53 Sunny 90 32 39 4 17 17 SE 16 26 29.59 1002 10 16.09344 0 0
6:53 pm 18:53 Sunny 90 32 39 4 17 17 SSE 22 35 29.59 1002 10 16.09344 0 0
7:53 pm 19:53 Sunny 88 31 39 4 18 18 S 14 22 29.62 1003 10 16.09344 0 0
8:53 pm 20:53 Clear 86 30 39 4 19 19 SSE 13 20 29.65 1004 10 16.09344 0 0
9:53 pm 21:53 Clear 86 30 41 5 20 20 S 13 20 29.68 1005 10 16.09344 0 0
10:53 pm 22:53 Clear 84 29 43 6 23 23 SW 8 13 29.68 1005 10 16.09344 0 0
11:53 pm 23:53 Clear 82 28 39 4 21 21 Calm 29.68 1005 10 16.09344 0 0

Powered by AerisWeather